Ravenna, OH

2:22 AM EDT on May 28, 2017 (GMT -0400)
Ravenna

Weather History for KPOV - November, 2012

Change the Weather History Date:

Friday, November 30, 2012

  Actual Average (KCAK) Record (KCAK)
Temperature  
Mean Temperature 38 °F -  
Max Temperature 49 °F 42 °F 69 °F (1934)
Min Temperature 27 °F 29 °F -1 °F (1958)
Degree Days  
Heating Degree Days 27    
Moisture  
Dew Point 27 °F    
Average Humidity 64    
Maximum Humidity 80    
Minimum Humidity 44    
Precipitation  
Precipitation 0.00 in - - ()
Sea Level Pressure  
Sea Level Pressure 30.21 in    
Wind  
Wind Speed 2 mph (SE)    
Max Wind Speed 7 mph    
Max Gust Speed -    
Visibility 10 miles    
Events      
Averages and records for this station are not official NWS values.
T = Trace of Precipitation, MM = Missing Value Source: NWS Daily Summary

Daily Weather History Graph

Daily Weather History Graph

Search for Another Location

Airport or City:

Trip Planner

Search our weather history database for the weather conditions in past years. The results will help you decide how hot, cold, wet, or windy it might be!

Date:

Astronomy

Nov. 30, 2012 Rise Set
Actual Time 7:30 AM EST 4:56 PM EST
Civil Twilight 6:59 AM EST 5:27 PM EST
Nautical Twilight 6:25 AM EST 6:01 PM EST
Astronomical Twilight 5:52 AM EST 6:35 PM EST
Moon 6:50 PM EST (11/30) 9:01 AM EST (11/30)
Length of Visible Light 10h 27m
Length of Day
9h 26m
Waning Gibbous, 96% of the Moon is Illuminated
Nov 30
Waning Gibbous
Dec 6
Last Quarter
Dec 13
New
Dec 20
First Quarter
Dec 28
Full

Hourly Weather History & Observations

Time (EST) Temp. Windchill Dew Point Humidity Pressure Visibility Wind Dir Wind Speed Gust Speed Precip Events Conditions
12:15 AM 27.5 °F - 22.1 °F 80% 30.26 in 10.0 mi Calm Calm - N/A   Clear
12:35 AM 28.4 °F - 22.3 °F 78% 30.26 in 10.0 mi Calm Calm - N/A   Clear
12:54 AM 29.7 °F - 23.0 °F 76% 30.25 in 10.0 mi Calm Calm - N/A   Mostly Cloudy
1:15 AM 30.4 °F - 23.7 °F 76% 30.25 in 10.0 mi Calm Calm - N/A   Overcast
1:35 AM 32.2 °F - 23.5 °F 70% 30.25 in 10.0 mi Calm Calm - N/A   Overcast
1:55 AM 34.0 °F 31.0 °F 22.3 °F 62% 30.25 in 10.0 mi South 3.5 mph - N/A   Overcast
2:15 AM 34.0 °F - 22.8 °F 64% 30.25 in 10.0 mi Calm Calm - N/A   Overcast
2:35 AM 33.8 °F - 23.2 °F 65% 30.25 in 10.0 mi Calm Calm - N/A   Overcast
2:55 AM 32.4 °F - 26.1 °F 78% 30.25 in 10.0 mi Calm Calm - N/A   Overcast
3:15 AM 32.4 °F - 25.2 °F 75% 30.25 in 10.0 mi Calm Calm - N/A   Overcast
3:35 AM 32.0 °F - 24.8 °F 75% 30.25 in 10.0 mi Calm Calm - N/A   Overcast
3:54 AM 31.8 °F - 25.5 °F 78% 30.25 in 10.0 mi Calm Calm - N/A   Overcast
4:15 AM 32.4 °F - 23.7 °F 70% 30.24 in 10.0 mi Calm Calm - N/A   Overcast
4:35 AM 30.4 °F - 24.4 °F 79% 30.23 in 10.0 mi Calm Calm - N/A   Mostly Cloudy
4:55 AM 29.8 °F - 23.5 °F 77% 30.23 in 10.0 mi Calm Calm - N/A   Scattered Clouds
5:15 AM 31.3 °F 27.9 °F 23.4 °F 72% 30.23 in 10.0 mi ESE 3.5 mph - N/A   Scattered Clouds
5:35 AM 31.5 °F 28.1 °F 23.5 °F 73% 30.23 in 10.0 mi ESE 3.5 mph - N/A   Mostly Cloudy
5:55 AM 31.1 °F 27.7 °F 24.1 °F 75% 30.23 in 10.0 mi ESE 3.5 mph - N/A   Mostly Cloudy
6:15 AM 31.3 °F 27.9 °F 24.8 °F 77% 30.23 in 10.0 mi ESE 3.5 mph - N/A   Overcast
6:35 AM 31.3 °F 27.9 °F 24.3 °F 75% 30.22 in 10.0 mi ESE 3.5 mph - N/A   Scattered Clouds
6:54 AM 32.2 °F 27.7 °F 24.3 °F 73% 30.22 in 10.0 mi ESE 4.6 mph - N/A   Mostly Cloudy
7:15 AM 32.0 °F 28.7 °F 24.1 °F 73% 30.22 in 10.0 mi ESE 3.5 mph - N/A   Scattered Clouds
7:35 AM 32.0 °F 27.5 °F 24.3 °F 73% 30.22 in 10.0 mi ESE 4.6 mph - N/A   Clear
7:54 AM 32.2 °F 28.9 °F 24.4 °F 73% 30.22 in 10.0 mi ESE 3.5 mph - N/A   Clear
8:15 AM 32.0 °F 28.7 °F 25.2 °F 76% 30.22 in 10.0 mi ESE 3.5 mph - N/A   Clear
8:35 AM 32.9 °F - 25.3 °F 74% 30.22 in 10.0 mi Calm Calm - N/A   Clear
8:55 AM 34.3 °F 31.4 °F 26.8 °F 74% 30.22 in 10.0 mi East 3.5 mph - N/A   Clear
9:15 AM 36.0 °F 33.3 °F 26.2 °F 68% 30.23 in 10.0 mi ESE 3.5 mph - N/A   Clear
9:35 AM 37.6 °F - 26.8 °F 65% 30.23 in 10.0 mi Calm Calm - N/A   Clear
9:55 AM 40.1 °F 36.9 °F 26.8 °F 59% 30.24 in 10.0 mi SSE 4.6 mph - N/A   Clear
10:15 AM 41.2 °F - 27.5 °F 58% 30.24 in 10.0 mi Calm Calm - N/A   Clear
10:35 AM 41.0 °F - 27.0 °F 57% 30.24 in 10.0 mi Calm Calm - N/A   Clear
10:54 AM 42.8 °F 40.1 °F 28.0 °F 56% 30.22 in 10.0 mi SE 4.6 mph - N/A   Clear
11:15 AM 44.8 °F - 28.4 °F 53% 30.22 in 10.0 mi Calm Calm - N/A   Clear
11:35 AM 45.5 °F 44.2 °F 27.7 °F 50% 30.21 in 10.0 mi SSE 3.5 mph - N/A   Clear
11:54 AM 45.7 °F 44.4 °F 27.1 °F 48% 30.21 in 10.0 mi SSW 3.5 mph - N/A   Clear
12:15 PM 46.9 °F - 27.5 °F 47% 30.19 in 10.0 mi SW 4.6 mph - N/A   Clear
12:35 PM 47.5 °F - 27.9 °F 47% 30.19 in 10.0 mi South 3.5 mph - N/A   Clear
12:55 PM 47.7 °F - 27.3 °F 45% 30.18 in 10.0 mi SW 5.8 mph - N/A   Clear
1:15 PM 48.6 °F - 27.5 °F 44% 30.18 in 10.0 mi South 3.5 mph - N/A   Clear
1:35 PM 48.9 °F - 28.0 °F 44% 30.18 in 10.0 mi SSW 3.5 mph - N/A   Clear
1:55 PM 48.7 °F - 27.5 °F 44% 30.16 in 10.0 mi South 6.9 mph - N/A   Clear
2:15 PM 48.2 °F - 27.7 °F 45% 30.15 in 10.0 mi SSE 5.8 mph - N/A   Clear
2:35 PM 49.5 °F - 28.0 °F 44% 30.16 in 10.0 mi SSE 6.9 mph - N/A   Clear
2:54 PM 48.9 °F - 27.7 °F 44% 30.17 in 10.0 mi South 4.6 mph - N/A   Clear
3:15 PM 48.2 °F - 28.4 °F 46% 30.15 in 10.0 mi South 3.5 mph - N/A   Mostly Cloudy
3:35 PM 48.2 °F - 28.4 °F 46% 30.16 in 10.0 mi SSW 3.5 mph - N/A   Overcast
3:55 PM 48.2 °F - 28.8 °F 47% 30.17 in 10.0 mi Calm Calm - N/A   Overcast
4:15 PM 48.2 °F - 28.6 °F 47% 30.16 in 10.0 mi Calm Calm - N/A   Mostly Cloudy
4:35 PM 47.7 °F - 28.9 °F 48% 30.16 in 10.0 mi Calm Calm - N/A   Scattered Clouds
4:55 PM 47.1 °F - 28.8 °F 49% 30.16 in 10.0 mi Calm Calm - N/A   Scattered Clouds
5:15 PM 45.0 °F 43.5 °F 29.5 °F 55% 30.15 in 10.0 mi SE 3.5 mph - N/A   Scattered Clouds
5:35 PM 46.4 °F - 28.8 °F 50% 30.17 in 10.0 mi Calm Calm - N/A   Mostly Cloudy
5:55 PM 43.5 °F - 30.0 °F 59% 30.18 in 10.0 mi Calm Calm - N/A   Overcast
6:15 PM 43.5 °F - 29.5 °F 58% 30.18 in 10.0 mi Calm Calm - N/A   Overcast
6:35 PM 43.5 °F - 29.3 °F 57% 30.19 in 10.0 mi Calm Calm - N/A   Mostly Cloudy
6:56 PM 41.2 °F - 30.7 °F 66% 30.19 in 10.0 mi Calm Calm - N/A   Scattered Clouds
7:15 PM 40.6 °F - 30.4 °F 67% 30.20 in 10.0 mi Calm Calm - N/A   Scattered Clouds
7:35 PM 39.9 °F - 30.7 °F 70% 30.20 in 10.0 mi Calm Calm - N/A   Mostly Cloudy
7:56 PM 38.7 °F 36.3 °F 30.0 °F 71% 30.20 in 10.0 mi ENE 3.5 mph - N/A   Scattered Clouds
8:15 PM 37.6 °F 35.1 °F 29.8 °F 74% 30.21 in 10.0 mi ENE 3.5 mph - N/A   Mostly Cloudy
8:35 PM 36.5 °F 33.9 °F 30.2 °F 78% 30.21 in 10.0 mi East 3.5 mph - N/A   Overcast
8:55 PM 38.3 °F 35.9 °F 30.2 °F 73% 30.22 in 10.0 mi East 3.5 mph - N/A   Overcast
9:15 PM 39.4 °F 37.2 °F 30.4 °F 70% 30.21 in 10.0 mi ESE 3.5 mph - N/A   Overcast
9:35 PM 41.5 °F 39.6 °F 28.9 °F 61% 30.22 in 10.0 mi ESE 3.5 mph - N/A   Overcast
9:55 PM 40.6 °F - 28.9 °F 63% 30.22 in 10.0 mi Calm Calm - N/A   Mostly Cloudy
10:15 PM 37.8 °F 35.3 °F 28.8 °F 70% 30.22 in 10.0 mi East 3.5 mph - N/A   Scattered Clouds
10:35 PM 36.9 °F 34.3 °F 28.4 °F 71% 30.21 in 10.0 mi ESE 3.5 mph - N/A   Clear
10:56 PM 38.3 °F 34.8 °F 28.4 °F 68% 30.21 in 10.0 mi East 4.6 mph - N/A   Clear
11:15 PM 34.3 °F 31.4 °F 27.9 °F 77% 30.22 in 10.0 mi East 3.5 mph - N/A   Clear
11:35 PM 36.5 °F 33.9 °F 28.8 °F 74% 30.22 in 10.0 mi East 3.5 mph - N/A   Clear
11:54 PM 33.4 °F 30.4 °F 27.7 °F 79% 30.22 in 10.0 mi East 3.5 mph - N/A   Clear